Regional Weather Roundup
Issued by NWS

Home | Current Version | Previous Version | Graphics & Text | Print | Product List | Glossary On
Versions: 1 2 3 4 5 6 7 8 9 10 11 12 13 14 15 16 17 18 19 20 21 22 23 24 25 26 27 28 29 30 31 32 33 34 35 36 37 38 39 40 41 42 43 44 45 46 47 48 49 50
000
ASUS43 KIND 281959
RWRIN

WEATHER ROUNDUP FOR INDIANA
NATIONAL WEATHER SERVICE INDIANAPOLIS IN
400 PM EDT TUE JUL 28 2015

NOTE: "FAIR" INDICATES FEW OR NO CLOUDS BELOW 12,000 FEET WITH NO
SIGNIFICANT WEATHER AND/OR OBSTRUCTIONS TO VISIBILITY.

* - STATION DOES NOT REPORT WEATHER SUCH AS PRECIPITATION OR FOG.

+ - STATION NOT QUALITY CONTROLLED BY THE NATIONAL WEATHER SERVICE.
    USE DATA WITH CAUTION...ESPECIALLY DEWPOINT AND RELATIVE
    HUMIDITY OBSERVATIONS.

INZ001>003-010>013-019-020-282100-
NORTHWEST INDIANA

CITY           SKY/WX    TMP DP  RH WIND       PRES   REMARKS
GARY /AIRPORT/ PTSUNNY   88  72  58 SE8       29.96F
RENSSELAER +   PTSUNNY   88  75  66 W5        29.97F HX  97

$$

LMZ046-743>745-282100-
SOUTHERN LAKE MICHIGAN

STATION/POSITION TIME  TEMP    WIND        PRES    WAVE
                       AIR SEA DIR/SP/G            HT
                 (UTC) (F)     (DEG/KT/KT) (MB)    (FT)
BURNS HARBOR     1900   88     170/  7/ 12 1015.2F
MICHIGAN CITY    1900   83     170/  6/ 11   N/A
5NW MICH CITY    1900   82 77  150/  2/  4   N/A     0

$$

INZ004-005-014>016-021>024-282100-
NORTH CENTRAL INDIANA

CITY           SKY/WX    TMP DP  RH WIND       PRES   REMARKS
ELKHART        MOSUNNY   90  64  43 S8        29.99F
GOSHEN         MOSUNNY   88  68  51 SE6       29.99F
SOUTH BEND     PTSUNNY   89  67  47 SE10      29.99F

$$

INZ006>009-017-018-025>027-282100-
NORTHEAST INDIANA

CITY           SKY/WX    TMP DP  RH WIND       PRES   REMARKS
ANGOLA *+      SUNNY     88  64  45 S3        30.01S
FORT WAYNE     PTSUNNY   88  69  53 SE7       29.99F

$$

INZ028-029-035-036-043>045-051>053-282100-
WEST CENTRAL INDIANA

CITY           SKY/WX    TMP DP  RH WIND       PRES   REMARKS
CRAWFORDSVL +  SUNNY     87  69  54 W7          N/A
GREENCASTLE +  MOSUNNY   88  64  45 NW3       29.98F
LAFAYETTE      MOSUNNY   88  73  61 W3        29.96F HX  95
TERRE HAUTE    PTSUNNY   92  73  53 CALM      29.96F HX 100

$$

INZ030>032-037>040-046>048-054>057-064-065-282100-
CENTRAL INDIANA

CITY           SKY/WX    TMP DP  RH WIND       PRES   REMARKS
ANDERSON       MOSUNNY   88  63  42 CALM      29.99F
COLUMBUS       MOSUNNY   86  70  58 CALM      29.97S
INDIANAPOLIS   MOSUNNY   90  70  51 W7        29.95F HX  95
-EAGLE CREEK   SUNNY     91  72  53 NW6       29.96F HX  98
KOKOMO *+      MOSUNNY   88  72  58 CALM      29.97F
MT COMFORT *+  MOSUNNY   84  73  70 S6        29.98F
SHELBYVILLE    MOSUNNY   90  74  59 E5        29.96F HX  99

$$

INZ033-034-041-042-049-050-058-059-282100-
EAST CENTRAL INDIANA

CITY           SKY/WX    TMP DP  RH WIND       PRES   REMARKS
MUNCIE         MOSUNNY   88  71  57 E3        29.98F

$$

INZ060-061-067>069-081>083-085>088-282100-
SOUTHWEST INDIANA

CITY           SKY/WX    TMP DP  RH WIND       PRES   REMARKS
EVANSVILLE     MOSUNNY   92  76  59 VRB3      29.95F HX 104
HUNTINGBURG *+ MOSUNNY   90  75  62 W7        29.95F HX 100

$$

INZ062-063-066-070>080-084-089>092-282100-
SOUTH CENTRAL AND SOUTHEAST INDIANA

CITY           SKY/WX    TMP DP  RH WIND       PRES   REMARKS
BLOOMINGTON    PTSUNNY   87  74  64 NW3       29.97F HX  95
MADISON *+     SUNNY     90  68  48 NW5       29.99S
SEYMOUR +      SUNNY     95  73  49 W6        29.95F HX 105

$$




USA.gov is the U.S. government's official web portal to all federal, state and local government web resources and services.